Regional Weather Roundup
Issued by NWS

Home | Current Version | Previous Version | Text Only | Print | Product List | Glossary Off
Versions: 1 2 3 4 5 6 7 8 9 10 11 12 13 14 15 16 17 18 19 20 21 22 23 24 25 26 27 28 29 30 31 32 33 34 35 36 37 38 39 40 41 42 43 44 45 46 47 48 49 50

176
ASUS43 KMKX 261600
RWRWI

WISCONSIN REGIONAL WEATHER ROUNDUP
NATIONAL WEATHER SERVICE MILWAUKEE/SULLIVAN WI
1100 AM CDT THU MAY 26 2016

NOTE: "FAIR" INDICATES FEW OR NO CLOUDS BELOW 12,000 FEET WITH NO
SIGNIFICANT WEATHER AND/OR OBSTRUCTIONS TO VISIBILITY.

WIZ001-002-006>008-014>016-023>028-261700-
NORTHWEST WISCONSIN

CITY           SKY/WX    TMP DP  RH WIND       PRES   REMARKS
SUPERIOR ARPT  CLOUDY    46  46 100 NE3       29.81F FOG
ASHLAND        CLOUDY    51  51 100 N5        29.81S FOG
HAYWARD        PTSUNNY   65  61  87 S7        29.81S
SIREN          SUNNY     70  59  66 SW7       29.79F
CUMBERLAND     CLOUDY    66  59  77 SW7       29.82S
RICE LAKE      CLOUDY    67  60  77 W3        29.83F
CHETEK         CLOUDY    66  64  91 NW5       29.83R
LADYSMITH      CLOUDY    67  62  84 CALM      29.84S
EAU CLAIRE     CLOUDY    67  60  78 W10       29.82R
MENOMONIE      SUNNY     68  64  88 W6        29.82F
NEW RICHMOND   SUNNY     70  57  63 SW5       29.81F
OSCEOLA        SUNNY     70  59  68 SW7       29.83S
$$

WIZ003>005-009-010-017-018-261700-
NORTH CENTRAL WISCONSIN

CITY           SKY/WX    TMP DP  RH WIND       PRES   REMARKS
MANITOWISH WTR NOT AVBL
ARBOR VITAE    LGT RAIN  63  62  95 W7        29.83R
WOODRUFF       LGT RAIN  63  62  95 W7        29.83R
RHINELANDER    LGT RAIN  63  60  90 W9        29.82S
EAGLE RIVER    HVY RAIN  63  62  99 SW15G21   29.82R
LAND O LAKES   CLOUDY    65  62  89 SE3       29.80F
PHILLIPS       PTSUNNY   63  62  97 S5        29.83S
TOMAHAWK       LGT RAIN  61  60  97 W5        29.82S
MEDFORD        LGT RAIN  61  61 100 NW5       29.81F
MERRILL        CLOUDY    63  62  97 NW5       29.80F
$$

WIZ029-030-035-036-043>047-261700-
CENTRAL WISCONSIN

CITY           SKY/WX    TMP DP  RH WIND       PRES   REMARKS
WAUSAU         CLOUDY    66  32  28 NW3       29.79R
MOSINEE        PTSUNNY   64  63  94 CALM      29.83R
MARSHFIELD     CLOUDY    68  61  78 W9        29.82R
STEVENS POINT  CLOUDY    66  61  85 SW6       29.83R
WAUPACA        CLOUDY    67  66  99 S6        29.81R
WAUTOMA        CLOUDY    66  64  93 SW8       29.85R
WISC RAPIDS    PTSUNNY   70  62  76 SW8       29.84R
CAMP DOUGLAS   NOT AVBL
$$

WIZ011>013-019>022-031-037>040-048>050-261700-
NORTHEAST WISCONSIN

CITY           SKY/WX    TMP DP  RH WIND       PRES   REMARKS
ANTIGO         CLOUDY    63  60  91 CALM      29.80F
SHAWANO          N/A     66  65  95 E5        29.79F
OCONTO         CLOUDY   N/A N/A N/A CALM      29.81F
STURGEON BAY   NOT AVBL
GREEN BAY      MOSUNNY   72  66  81 SE6       29.79F
MANITOWOC      NOT AVBL
APPLETON       PTSUNNY   70  66  88 SE7       29.79F
CLINTONVILLE   PTSUNNY   68  64  88 E9        29.78F
OSHKOSH        CLOUDY    74  65  73 S14       29.81S
$$

WIZ032>034-041-042-053>061-261700-
SOUTHWEST WISCONSIN

CITY           SKY/WX    TMP DP  RH WIND       PRES   REMARKS
LA CROSSE      SUNNY     71  60  68 VRB5      29.85R
SPARTA         SUNNY     71  62  75 CALM      29.84S
VIROQUA        MOSUNNY   68  62  79 SW6       29.87S
BOSCOBEL       CLOUDY    76  62  62 VRB7      29.88R
PRAIRIE DU CHI SUNNY     71  59  65 S6        29.87R
PLATTEVILLE    MOSUNNY   74  61  63 S13       29.90R
$$

WIZ056-057-062-063-064-067-068-261700-
SOUTH CENTRAL WISCONSIN

CITY           SKY/WX    TMP DP  RH WIND       PRES   REMARKS
REEDSBURG      SUNNY     71  63  75 SW8       29.86R
BARABOO/DELLS  MOSUNNY   71  62  74 SW8       29.86S
LONE ROCK      NOT AVBL
MINERAL POINT  SUNNY     73  63  68 S10       29.89R
MADISON        PTSUNNY   71  62  73 S16       29.87R
MIDDLETON      PTSUNNY   73  63  71 S14       29.88R
WATERTOWN      MOSUNNY   70  67  92 S8        29.87S
MONROE         CLOUDY    68  61  77 S8        29.91R
JANESVILLE     MOSUNNY   72  63  73 SW6         N/A
$$

WIZ051-052-058>065-066-070>072-261700-
SOUTHEAST WISCONSIN

CITY           SKY/WX    TMP DP  RH WIND       PRES   REMARKS
MILWAUKEE      PTSUNNY   71  68  90 S9        29.88R
WAUKESHA       SUNNY     68  63  83 S6        29.89F
MILWAUKEE/TIMM SUNNY     72  61  68 S9        29.88S
RACINE         CLOUDY    73  64  73 SW6       29.92R
BURLINGTON     CLOUDY    68  64  89 S3        29.91S
KENOSHA        CLOUDY    74  67  78 SW7       29.90R
FOND DU LAC    MOSUNNY   74  66  76 S14       29.82F
SHEBOYGAN      CLOUDY    72  66  81 S13       29.84F
WEST BEND      MOSUNNY   70  63  78 S9        29.86S
JUNEAU         MOSUNNY   71  64  80 S15       29.87R
$$

LSZ147-162-261700-
LAKE SUPERIOR

STATION/POSITION TIME  TEMP    WIND        PRES    WAVE
                       AIR SEA DIR/SP/G            HT/PER
                 (UTC) (F)     (DEG/KT/KT) (MB)    (FT/S)
W MID LAKE BUOY  1450   41 38   50/  8/  8 1009.8F   1/ 3
DEVILS ISLAND    1500   44      CALM  /  1 1010.7R
SAXON HARBOR     1500   47     360/  6/ 11 1009.1R
$$

LMZ867-665-643>646-261700-
LAKE MICHIGAN

STATION/POSITION TIME  TEMP    WIND        PRES    WAVE
                       AIR SEA DIR/SP/G            HT/PER
                 (UTC) (F)     (DEG/KT/KT) (MB)    (FT/S)
CHAMBERS ISLAND  1500   61     150/  5/  7 1010.8F
N MID LAKE BUOY  1450   48 45  200/ 10/ 12 1010.9F   1/ 3
NORTHPORT PIER   1500   64     160/  2/  4 1010.8S
SISTER BAY       1520   63     200/  8/  9   N/A
ALGOMA LAKESHORE 1517             CALM       N/A
KEWAUNEE LAKESHO 1500   51     150/  5/  5 1010.7F
SHEBOYGAN LAKESH 1500   60     160/  9/ 10 1010.9F
PORT WASHINGTON  1540   60     190/  8/ 11 1011.9F
S MID LAKE BUOY  1450   53 49  180/  8/ 10 1012.9S   1/ 3
KENOSHA   LAKESH 1500   66     140/ 10/ 12 1012.5F
$$

TC  - TEMPERATURE IN CELSIUS
VSB - VISIBILITY IN STATUTE MILES
WCI - WIND CHILL INDEX
HX  - HEAT INDEX





USA.gov is the U.S. government's official web portal to all federal, state and local government web resources and services.